Minneapolis Flying Cloud, MN

12:24 AM CDT on August 21, 2017 (GMT -0500)
Flying Cloud

Weather History for KFCM - April, 2014

Change the Weather History Date:

Tuesday, April 1, 2014

  Actual Average Record
Temperature  
Mean Temperature 28 °F -  
Max Temperature 37 °F 46 °F 82 °F (2015)
Min Temperature 21 °F 29 °F 18 °F (2013)
Degree Days  
Heating Degree Days 36    
Moisture  
Dew Point 21 °F    
Average Humidity 76    
Maximum Humidity 96    
Minimum Humidity 56    
Precipitation  
Precipitation 0.00 in - - ()
Sea Level Pressure  
Sea Level Pressure 29.78 in    
Wind  
Wind Speed 14 mph (WNW)    
Max Wind Speed 28 mph    
Max Gust Speed 38 mph    
Visibility 7 miles    
Events Rain , Snow    
Averages and records for this station are not official NWS values.
T = Trace of Precipitation, MM = Missing Value Source: NWS Daily Summary

Daily Weather History Graph

Daily Weather History Graph

Search for Another Location

Airport or City:

Trip Planner

Search our weather history database for the weather conditions in past years. The results will help you decide how hot, cold, wet, or windy it might be!

Date:

Astronomy

Apr. 01, 2014 Rise Set
Actual Time 6:54 AM CDT 7:41 PM CDT
Civil Twilight 6:24 AM CDT 8:11 PM CDT
Nautical Twilight 5:49 AM CDT 8:46 PM CDT
Astronomical Twilight 5:13 AM CDT 9:23 PM CDT
Moon 7:52 AM CDT (4/1) 10:11 PM CDT (4/1)
Length of Visible Light 13h 46m
Length of Day
12h 47m
Waxing Crescent, 5% of the Moon is Illuminated
Apr 1
Waxing Crescent
Apr 7
First Quarter
Apr 15
Full
Apr 22
Last Quarter
Apr 29
New

Hourly Weather History & Observations

Time (CDT) Temp. Windchill Dew Point Humidity Pressure Visibility Wind Dir Wind Speed Gust Speed Precip Events Conditions
12:31 AM 30.2 °F 18.5 °F 28.4 °F 93% 29.40 in 3.0 mi South 17.3 mph - 0.00 in Rain Light Freezing Rain
12:42 AM 30.2 °F 20.2 °F 28.4 °F 93% 29.41 in 2.5 mi SSW 12.7 mph - 0.00 in Rain Light Freezing Rain
12:53 AM 30.0 °F 20.0 °F 28.9 °F 96% 29.43 in 2.5 mi South 12.7 mph 19.6 mph 0.00 in Rain Light Freezing Rain
1:30 AM 30.2 °F 21.9 °F 28.4 °F 93% 29.42 in 4.0 mi SSW 9.2 mph 17.3 mph 0.00 in Rain Light Freezing Rain
1:53 AM 30.0 °F 25.2 °F 28.9 °F 96% 29.44 in 3.0 mi SSW 4.6 mph - 0.00 in Rain Light Freezing Rain
2:04 AM 30.2 °F - 28.4 °F 93% 29.43 in 4.0 mi Calm Calm - 0.00 in Rain Light Freezing Rain
2:23 AM 30.2 °F 25.4 °F 28.4 °F 93% 29.44 in 6.0 mi West 4.6 mph - 0.00 in   Overcast
2:53 AM 30.9 °F 26.2 °F 30.0 °F 96% 29.47 in 3.0 mi West 4.6 mph - 0.00 in   Overcast
3:23 AM 30.2 °F 15.7 °F 26.6 °F 86% 29.47 in 10.0 mi NW 27.6 mph 38.0 mph N/A   Overcast
3:51 AM 28.4 °F 14.4 °F 23.0 °F 80% 29.51 in 10.0 mi NW 23.0 mph 35.7 mph N/A   Overcast
3:53 AM 28.9 °F 15.1 °F 23.0 °F 78% 29.52 in 10.0 mi NW 23.0 mph 35.7 mph N/A   Overcast
4:02 AM 26.6 °F 12.0 °F 23.0 °F 86% 29.53 in 10.0 mi WNW 23.0 mph 33.4 mph N/A   Overcast
4:19 AM 26.6 °F 12.0 °F 21.2 °F 80% 29.54 in 10.0 mi WNW 23.0 mph 36.8 mph N/A   Overcast
4:53 AM 26.1 °F 13.6 °F 19.0 °F 75% 29.60 in 10.0 mi WNW 16.1 mph 28.8 mph N/A   Overcast
5:53 AM 24.1 °F 10.6 °F 17.1 °F 75% 29.66 in 10.0 mi NW 17.3 mph 25.3 mph N/A   Overcast
6:53 AM 21.9 °F 7.8 °F 14.0 °F 72% 29.73 in 9.0 mi WNW 17.3 mph 29.9 mph 0.00 in Snow Light Snow
7:23 AM 21.2 °F 5.6 °F 14.0 °F 74% 29.74 in 1.8 mi WNW 20.7 mph 29.9 mph 0.00 in Snow Light Snow
7:53 AM 21.0 °F 7.6 °F 15.1 °F 78% 29.79 in 1.0 mi WNW 15.0 mph 25.3 mph 0.00 in Snow Light Snow
8:37 AM 21.2 °F 6.4 °F 15.8 °F 80% 29.78 in 0.8 mi WNW 18.4 mph 23.0 mph 0.00 in Snow Light Snow
8:44 AM 21.2 °F 6.0 °F 15.8 °F 80% 29.78 in 1.2 mi NW 19.6 mph 27.6 mph 0.00 in Snow Light Snow
8:53 AM 21.0 °F 7.1 °F 16.0 °F 81% 29.81 in 1.2 mi WNW 16.1 mph 24.2 mph 0.00 in Snow Light Snow
9:12 AM 21.2 °F 8.3 °F 15.8 °F 80% 29.81 in 2.0 mi WNW 13.8 mph 25.3 mph 0.00 in Snow Light Snow
9:33 AM 21.2 °F 6.8 °F 15.8 °F 80% 29.82 in 3.0 mi WNW 17.3 mph 26.5 mph 0.00 in Snow Light Snow
9:42 AM 21.2 °F 7.8 °F 15.8 °F 80% 29.83 in 2.5 mi WNW 15.0 mph 20.7 mph 0.00 in Snow Light Snow
9:53 AM 23.0 °F 9.6 °F 17.1 °F 78% 29.87 in 2.0 mi WNW 16.1 mph - 0.00 in Snow Light Snow
10:05 AM 24.8 °F 12.9 °F 17.6 °F 74% 29.85 in 6.0 mi WNW 13.8 mph 23.0 mph 0.00 in Snow Light Snow
10:53 AM 26.1 °F 12.7 °F 16.0 °F 66% 29.91 in 10.0 mi WNW 18.4 mph - 0.00 in   Overcast
11:31 AM 28.4 °F 16.2 °F 15.8 °F 59% 29.90 in 10.0 mi WNW 17.3 mph - N/A   Scattered Clouds
11:53 AM 28.9 °F 17.7 °F 17.1 °F 61% 29.95 in 10.0 mi WNW 15.0 mph 23.0 mph N/A   Mostly Cloudy
12:45 PM 30.2 °F 18.9 °F 19.4 °F 64% 29.92 in 10.0 mi West 16.1 mph - N/A   Scattered Clouds
12:53 PM 30.9 °F 19.1 °F 19.0 °F 61% 29.95 in 10.0 mi WNW 18.4 mph 25.3 mph N/A   Scattered Clouds
1:40 PM 33.8 °F 23.2 °F 19.4 °F 56% 29.93 in 10.0 mi WNW 17.3 mph 24.2 mph N/A   Mostly Cloudy
1:53 PM 32.0 °F 20.5 °F 21.0 °F 64% 29.97 in 10.0 mi West 18.4 mph 23.0 mph N/A   Mostly Cloudy
2:26 PM 33.8 °F 23.9 °F 21.2 °F 60% 29.94 in 10.0 mi WNW 15.0 mph 21.9 mph N/A   Scattered Clouds
2:38 PM 33.8 °F 25.3 °F 21.2 °F 60% 29.94 in 10.0 mi West 11.5 mph 21.9 mph N/A   Mostly Cloudy
2:53 PM 33.1 °F 23.0 °F 21.9 °F 64% 29.98 in 10.0 mi West 15.0 mph 20.7 mph N/A   Mostly Cloudy
3:53 PM 35.1 °F 26.4 °F 23.0 °F 61% 29.99 in 10.0 mi West 12.7 mph 17.3 mph N/A   Mostly Cloudy
4:15 PM 35.6 °F 26.2 °F 23.0 °F 60% 29.96 in 10.0 mi West 15.0 mph 24.2 mph N/A   Scattered Clouds
4:53 PM 36.0 °F 27.5 °F 24.1 °F 62% 30.00 in 10.0 mi WSW 12.7 mph 19.6 mph N/A   Partly Cloudy
5:53 PM 36.0 °F 29.0 °F 24.1 °F 62% 30.02 in 10.0 mi West 9.2 mph - N/A   Clear
6:53 PM 34.0 °F 27.2 °F 24.1 °F 67% 30.06 in 10.0 mi West 8.1 mph - N/A   Clear
7:53 PM 32.0 °F 24.8 °F 24.1 °F 73% 30.09 in 10.0 mi West 8.1 mph - N/A   Clear
8:53 PM 30.0 °F 23.2 °F 23.0 °F 75% 30.11 in 10.0 mi West 6.9 mph - N/A   Clear
9:53 PM 30.0 °F 24.1 °F 23.0 °F 75% 30.12 in 10.0 mi WNW 5.8 mph - N/A   Clear
10:53 PM 28.0 °F 22.8 °F 21.9 °F 78% 30.13 in 10.0 mi NW 4.6 mph - N/A   Clear
11:53 PM 27.0 °F 21.6 °F 21.0 °F 78% 30.15 in 10.0 mi NW 4.6 mph - N/A   Clear